Orbital Elements at Epoch 2459200.5 (2020-Dec-17.0) TDB
Reference: JPL 18 (heliocentric ecliptic J2000)
Element | Value | Uncertainty (1-sigma) | Units |
e | .07362759889580416 | 5.5417e-08 | |
a | 2.316431094557311 | 1.1384e-08 | au |
q | 2.145877835057477 | 1.2846e-07 | au |
i | 15.15226850297205 | 5.6116e-06 | deg |
node | 27.94598342309336 | 1.7753e-05 | deg |
peri | 304.2163971590645 | 3.5146e-05 | deg |
M | 30.90104341044489 | 3.1412e-05 | deg |
tp | 2459089.965424092273 (2020-Aug-28.46542409) | 0.00011225 | TDB |
period | 1287.737983414871 3.53 | 9.4927e-06 2.599e-08 | d yr |
n | .2795599762036519 | 2.0608e-09 | deg/d |
Q | 2.486984354057146 | 1.2222e-08 | au |
|
| | Orbit Determination Parameters
Additional Information
|